Weather History for Danville, IL

Change the Weather History Date:

Saturday, November 26, 2011

  Actual Average (KLAF) Record (KLAF)
Temperature  
Mean Temperature 56 °F 38 °F  
Max Temperature 62 °F 46 °F 66 °F (2011)
Min Temperature 50 °F 30 °F 7 °F (1977)
Degree Days  
Heating Degree Days 9 27  
Month to date heating degree days 554  
Since 1 July heating degree days 988  
Cooling Degree Days 0 0  
Month to date cooling degree days 0  
Year to date cooling degree days 982  
Growing Degree Days 6 (Base 50)    
Moisture  
Dew Point 47 °F    
Average Humidity 72    
Maximum Humidity 94    
Minimum Humidity 58    
Precipitation  
Precipitation 0.00 in 0.10 in 1.35 in (1985)
Month to date precipitation 2.57  
Year to date precipitation 33.67  
Sea Level Pressure  
Sea Level Pressure 29.91 in    
Wind  
Wind Speed 18 mph (South)    
Max Wind Speed 26 mph    
Max Gust Speed 34 mph    
Visibility 10 miles    
Events Rain    
T = Trace of Precipitation, MM = Missing Value Source: NWS Daily Summary

Daily Weather History Graph

Daily Weather History Graph

Search for Another Location

Airport:

Trip Planner

Search our weather history database for the weather conditions in past years. The results will help you decide how hot, cold, wet, or windy it might be!

Date:

Astronomy

Nov. 26, 2011 Rise Set
Actual Time 6:48 AM CST 4:26 PM CST
Civil Twilight 6:18 AM CST 4:56 PM CST
Nautical Twilight 5:44 AM CST 5:30 PM CST
Astronomical Twilight 5:12 AM CST 6:02 PM CST
Moon 8:18 AM CST (11/26) 5:57 PM CST (11/26)
Length of Visible Light 10h 38m
Length of Day
9h 38m
Waxing Crescent, 3% of the Moon is Illuminated
Nov 26
Waxing Crescent
Dec 2
First Quarter
Dec 10
Full
Dec 17
Last Quarter
Dec 24
New

Hourly Weather History & Observations

Time (CST) Temp. Windchill Dew Point Humidity Pressure Visibility Wind Dir Wind Speed Gust Speed Precip Events Conditions
12:15 AM 51.8 °F - 39.2 °F 62% 29.96 in 10.0 mi SSW 19.6 mph 23.0 mph N/A   Clear
12:35 AM 53.6 °F - 39.2 °F 58% 29.96 in 10.0 mi SSW 19.6 mph 26.5 mph N/A   Clear
12:55 AM 53.6 °F - 39.2 °F 58% 29.96 in 10.0 mi SSW 16.1 mph 27.6 mph N/A   Clear
1:15 AM 51.8 °F - 39.2 °F 62% 29.96 in 10.0 mi SSW 17.3 mph 24.2 mph N/A   Clear
1:35 AM 53.6 °F - 39.2 °F 58% 29.97 in 10.0 mi SSW 15.0 mph 28.8 mph N/A   Clear
1:55 AM 51.8 °F - 39.2 °F 62% 29.98 in 10.0 mi SSW 17.3 mph 23.0 mph N/A   Clear
2:15 AM 53.6 °F - 39.2 °F 58% 29.98 in 10.0 mi SSW 16.1 mph 20.7 mph N/A   Clear
2:35 AM 51.8 °F - 41.0 °F 67% 29.98 in 10.0 mi SSW 17.3 mph 23.0 mph N/A   Clear
2:55 AM 51.8 °F - 41.0 °F 67% 29.97 in 10.0 mi SSW 17.3 mph 23.0 mph N/A   Clear
3:15 AM 51.8 °F - 41.0 °F 67% 29.96 in 10.0 mi South 16.1 mph 21.9 mph N/A   Clear
3:35 AM 51.8 °F - 41.0 °F 67% 29.96 in 10.0 mi South 18.4 mph 23.0 mph N/A   Clear
3:55 AM 51.8 °F - 41.0 °F 67% 29.95 in 10.0 mi South 16.1 mph 21.9 mph N/A   Clear
4:15 AM 51.8 °F - 41.0 °F 67% 29.95 in 10.0 mi South 15.0 mph 21.9 mph N/A   Clear
4:35 AM 51.8 °F - 41.0 °F 67% 29.94 in 10.0 mi South 17.3 mph - N/A   Clear
4:55 AM 50.0 °F - 41.0 °F 71% 29.95 in 10.0 mi South 11.5 mph - N/A   Clear
5:15 AM 50.0 °F - 41.0 °F 71% 29.94 in 10.0 mi South 12.7 mph - N/A   Clear
5:35 AM 50.0 °F - 42.8 °F 76% 29.94 in 10.0 mi South 12.7 mph - N/A   Clear
5:55 AM 51.8 °F - 42.8 °F 71% 29.93 in 10.0 mi South 17.3 mph 23.0 mph N/A   Mostly Cloudy
6:15 AM 51.8 °F - 42.8 °F 71% 29.93 in 10.0 mi South 16.1 mph 25.3 mph N/A   Overcast
6:35 AM 51.8 °F - 42.8 °F 71% 29.93 in 10.0 mi South 13.8 mph - N/A   Mostly Cloudy
6:55 AM 51.8 °F - 42.8 °F 71% 29.94 in 10.0 mi South 15.0 mph - N/A   Overcast
7:15 AM 51.8 °F - 42.8 °F 71% 29.94 in 10.0 mi South 15.0 mph - N/A   Overcast
7:35 AM 51.8 °F - 42.8 °F 71% 29.95 in 10.0 mi South 13.8 mph - N/A   Overcast
7:55 AM 51.8 °F - 44.6 °F 76% 29.95 in 10.0 mi South 16.1 mph 24.2 mph N/A   Overcast
8:15 AM 53.6 °F - 44.6 °F 72% 29.95 in 10.0 mi South 17.3 mph 23.0 mph N/A   Overcast
8:35 AM 53.6 °F - 44.6 °F 72% 29.95 in 10.0 mi South 17.3 mph 24.2 mph N/A   Overcast
8:55 AM 53.6 °F - 46.4 °F 77% 29.94 in 10.0 mi South 17.3 mph 23.0 mph N/A   Overcast
9:15 AM 55.4 °F - 46.4 °F 72% 29.94 in 10.0 mi South 18.4 mph 27.6 mph N/A   Mostly Cloudy
9:35 AM 55.4 °F - 46.4 °F 72% 29.94 in 10.0 mi South 18.4 mph 26.5 mph N/A   Overcast
9:55 AM 55.4 °F - 46.4 °F 72% 29.93 in 10.0 mi South 19.6 mph 27.6 mph N/A   Overcast
10:15 AM 59.0 °F - 48.2 °F 67% 29.92 in 10.0 mi South 18.4 mph 24.2 mph N/A   Overcast
10:35 AM 59.0 °F - 50.0 °F 72% 29.91 in 10.0 mi South 19.6 mph 28.8 mph N/A   Mostly Cloudy
10:55 AM 59.0 °F - 50.0 °F 72% 29.90 in 10.0 mi South 18.4 mph 26.5 mph N/A   Mostly Cloudy
11:15 AM 60.8 °F - 50.0 °F 68% 29.90 in 10.0 mi SSW 19.6 mph 25.3 mph N/A   Overcast
11:35 AM 60.8 °F - 51.8 °F 72% 29.89 in 10.0 mi SSW 19.6 mph 26.5 mph N/A   Overcast
11:55 AM 60.8 °F - 51.8 °F 72% 29.88 in 10.0 mi SSW 26.5 mph 32.2 mph N/A   Mostly Cloudy
12:15 PM 62.6 °F - 51.8 °F 68% 29.87 in 10.0 mi South 21.9 mph 28.8 mph N/A   Scattered Clouds
12:35 PM 62.6 °F - 51.8 °F 68% 29.86 in 10.0 mi South 21.9 mph 33.4 mph N/A   Clear
12:55 PM 62.6 °F - 51.8 °F 68% 29.86 in 10.0 mi South 24.2 mph 28.8 mph N/A   Clear
1:15 PM 60.8 °F - 51.8 °F 72% 29.85 in 10.0 mi South 20.7 mph 34.5 mph N/A   Clear
1:35 PM 62.6 °F - 51.8 °F 68% 29.84 in 10.0 mi South 18.4 mph 34.5 mph N/A   Clear
1:55 PM 60.8 °F - 51.8 °F 72% 29.84 in 10.0 mi South 21.9 mph 26.5 mph N/A   Mostly Cloudy
2:15 PM 60.8 °F - 51.8 °F 72% 29.84 in 10.0 mi South 20.7 mph 24.2 mph N/A   Overcast
2:35 PM 60.8 °F - 53.6 °F 77% 29.84 in 10.0 mi SSW 15.0 mph 26.5 mph N/A   Overcast
2:55 PM 60.8 °F - 53.6 °F 77% 29.84 in 10.0 mi South 21.9 mph 28.8 mph N/A   Overcast
3:15 PM 60.8 °F - 53.6 °F 77% 29.84 in 10.0 mi South 18.4 mph 29.9 mph N/A   Overcast
3:35 PM 59.0 °F - 53.6 °F 82% 29.84 in 10.0 mi South 19.6 mph 28.8 mph N/A   Overcast
3:55 PM 59.0 °F - 53.6 °F 82% 29.84 in 10.0 mi South 17.3 mph - N/A Rain Rain
4:15 PM 59.0 °F - 53.6 °F 82% 29.83 in 10.0 mi South 20.7 mph 24.2 mph N/A Rain Rain
4:35 PM 59.0 °F - 51.8 °F 77% 29.82 in 10.0 mi South 17.3 mph 24.2 mph N/A Rain Light Rain
4:55 PM 59.0 °F - 51.8 °F 77% 29.82 in 10.0 mi South 18.4 mph - N/A Rain Rain
5:15 PM 59.0 °F - 51.8 °F 77% 29.82 in 10.0 mi South 17.3 mph - N/A Rain Light Rain
5:35 PM 57.2 °F - 53.6 °F 88% 29.82 in 10.0 mi South 12.7 mph - N/A Rain Light Rain
5:55 PM 57.2 °F - 53.6 °F 88% 29.82 in 10.0 mi South 15.0 mph 18.4 mph N/A Rain Light Rain
6:15 PM 55.4 °F - 53.6 °F 94% 29.82 in 7.0 mi South 13.8 mph - N/A Rain Rain
6:35 PM 55.4 °F - 53.6 °F 94% 29.82 in 7.0 mi South 17.3 mph - N/A Rain Heavy Rain
6:55 PM 55.4 °F - 53.6 °F 94% 29.82 in 7.0 mi South 13.8 mph - N/A Rain Rain
7:15 PM 55.4 °F - 53.6 °F 94% 29.81 in 10.0 mi South 16.1 mph - N/A Rain Light Rain
7:35 PM 55.4 °F - 53.6 °F 94% 29.81 in 10.0 mi South 13.8 mph 21.9 mph N/A Rain Rain
7:55 PM 55.4 °F - 53.6 °F 94% 29.80 in 10.0 mi South 13.8 mph 21.9 mph N/A Rain Light Rain
8:15 PM 55.4 °F - 53.6 °F 94% 29.80 in 10.0 mi South 13.8 mph 18.4 mph N/A Rain Light Rain
8:35 PM 55.4 °F - 55.4 °F 100% 29.79 in 10.0 mi South 13.8 mph - N/A Rain Light Rain
8:55 PM 55.4 °F - 55.4 °F 100% 29.78 in 10.0 mi South 13.8 mph 18.4 mph N/A Rain Light Rain
9:15 PM 55.4 °F - 55.4 °F 100% 29.79 in 10.0 mi South 15.0 mph - N/A Rain Light Rain
9:35 PM 55.4 °F - 55.4 °F 100% 29.78 in 10.0 mi South 12.7 mph - N/A Rain Rain
9:55 PM 55.4 °F - 55.4 °F 100% 29.76 in 10.0 mi South 12.7 mph 16.1 mph N/A Rain Light Rain
10:15 PM 55.4 °F - 55.4 °F 100% 29.77 in 10.0 mi South 12.7 mph - N/A Rain Rain
10:35 PM 55.4 °F - 55.4 °F 100% 29.77 in 10.0 mi South 13.8 mph - N/A Rain Rain
10:55 PM 55.4 °F - 55.4 °F 100% 29.77 in 10.0 mi WNW 16.1 mph - N/A Rain Rain
11:15 PM 46.4 °F 40.4 °F 46.4 °F 100% 29.79 in 10.0 mi WNW 13.8 mph - N/A Rain Light Rain
11:35 PM 46.4 °F 41.5 °F 44.6 °F 93% 29.80 in 7.0 mi West 10.4 mph - N/A Rain Rain
11:55 PM 44.6 °F 37.8 °F 44.6 °F 100% 29.80 in 7.0 mi WNW 15.0 mph 19.6 mph N/A Rain Rain